Volver al catálogo

STARLINK-33565

ActivoComunicacionesVLEO
NORAD 62288·PAYLOAD·🇺🇸 United States

Lanzado Dec 8, 2024 desde Cape Canaveral Space Force Station

Loading…

Próximos Pases (próximas 24 horas)

TLE

ActualizadoSource: CelesTrak SupGP

Época: Sep 14, 2026, 22:26 UTC

1 62288C 24237X   26257.93520833  .00008903  00000+0  32247-3 0  2576
2 62288  43.0006 216.2990 0001340 262.9130 152.4815 15.27574213    15

Sigue STARLINK-33565 en tiempo real con AllMySat

Download on the App Store